DW7087 Weather Reports


Display with metric or nautical units.
time (UTC)temp
F
wind
direction
speed
MPH
gust
MPH
rain 1hr
in
rain 24hr
in
rain mn
in
humidity
%
barometer
mb
20260506041806 48 348 4.0 7.0 0.00 0.00 0.00 77 1012.9
20260506040927 48 22 3.0 4.0 0.00 0.00 0.00 77 1012.9
20260506040006 48 10 5.0 8.0 0.00 0.00 0.00 76 1012.9
20260506035406 48 15 5.0 8.0 0.00 0.00 0.00 77 1013.0
20260506034506 48 37 5.0 8.0 0.00 0.00 0.00 77 1012.9
20260506033606 48 54 5.0 6.0 0.00 0.00 0.00 77 1012.8
20260506032727 48 40 3.0 7.0 0.00 0.00 0.00 78 1012.9
20260506031806 49 43 5.0 9.0 0.00 0.00 0.00 79 1012.8
20260506030906 49 20 3.0 5.0 0.00 0.00 0.00 79 1012.9
20260506030027 49 15 3.0 5.0 0.00 0.00 0.00 79 1013.0
20260506025406 49 48 3.0 4.0 0.00 0.00 0.00 78 1013.0
20260506024506 49 36 3.0 6.0 0.00 0.00 0.00 78 1012.8
20260506023606 49 40 3.0 7.0 0.00 0.00 0.00 77 1012.9
20260506022706 49 30 5.0 7.0 0.00 0.00 0.00 77 1012.9
20260506021806 49 56 5.0 8.0 0.00 0.00 0.00 78 1012.9
20260506020906 50 55 5.0 6.0 0.00 0.00 0.00 78 1013.0
20260506020027 50 52 4.0 6.0 0.00 0.00 0.00 79 1013.1
20260506015406 50 58 4.0 7.0 0.00 0.00 0.00 79 1013.0
20260506014527 50 53 5.0 7.0 0.00 0.00 0.00 79 1013.1
20260506013627 50 57 5.0 7.0 0.00 0.00 0.00 78 1013.0
20260506012706 50 35 4.0 6.0 0.00 0.00 0.00 77 1013.0
20260506011827 50 28 4.0 5.0 0.00 0.00 0.00 77 1013.1
20260506010906 50 45 3.0 6.0 0.00 0.00 0.00 76 1013.0
20260506010006 51 33 4.0 6.0 0.00 0.00 0.00 76 1013.1
20260506005427 51 23 4.0 7.0 0.00 0.00 0.00 76 1013.1
20260506004527 51 360 4.0 7.0 0.00 0.00 0.00 76 1013.2
20260506003606 51 38 5.0 6.0 0.00 0.00 0.00 75 1013.1
20260506002706 51 61 4.0 7.0 0.00 0.00 0.00 75 1013.2
20260506001806 51 17 4.0 8.0 0.00 0.00 0.00 74 1013.2
20260506000906 51 49 6.0 8.0 0.00 0.00 0.00 73 1013.1
20260506000006 52 49 6.0 9.0 0.00 0.00 0.00 73 1013.3
20260505235427 52 39 6.0 9.0 0.00 0.00 0.00 71 1013.3
20260505234506 52 23 6.0 9.0 0.00 0.00 0.00 71 1013.3
20260505233627 52 7 4.0 7.0 0.00 0.00 0.00 70 1013.2
20260505232706 52 57 5.0 7.0 0.00 0.00 0.00 70 1013.3
20260505231806 53 60 5.0 8.0 0.00 0.00 0.00 70 1013.1
20260505230906 53 40 6.0 8.0 0.00 0.00 0.00 70 1013.3
20260505230006 53 20 5.0 8.0 0.00 0.00 0.00 70 1013.4
20260505225406 53 19 5.0 8.0 0.00 0.00 0.00 70 1013.3
20260505224506 53 46 5.0 7.0 0.00 0.00 0.00 70 1013.3
20260505223606 54 25 8.0 11.0 0.00 0.00 0.00 68 1013.2
20260505222706 54 51 5.0 7.0 0.00 0.00 0.00 69 1013.3
20260505221806 54 57 6.0 10.0 0.00 0.00 0.00 68 1013.1
20260505220906 54 39 6.0 10.0 0.00 0.00 0.00 68 1013.0
20260505220027 54 22 7.0 11.0 0.00 0.00 0.00 68 1013.0
20260505215406 55 30 8.0 11.0 0.00 0.00 0.00 67 1013.0
20260505214506 55 44 6.0 10.0 0.00 0.00 0.00 67 1012.9
20260505213606 55 35 5.0 7.0 0.00 0.00 0.00 67 1012.8
20260505212706 55 357 6.0 13.0 0.00 0.00 0.00 67 1012.8
20260505211806 55 18 6.0 13.0 0.00 0.00 0.00 68 1012.8
20260505210927 55 36 5.0 8.0 0.00 0.00 0.00 68 1012.7
20260505210027 55 50 5.0 7.0 0.00 0.00 0.00 69 1012.7
20260505205406 56 50 6.0 11.0 0.00 0.00 0.00 69 1012.7
20260505204506 56 51 5.0 9.0 0.00 0.00 0.00 69 1012.7
20260505203606 57 31 4.0 5.0 0.00 0.00 0.00 67 1012.7
20260505202706 57 31 5.0 8.0 0.00 0.00 0.00 67 1012.5
20260505201827 57 43 5.0 6.0 0.00 0.00 0.00 67 1012.5
20260505200906 57 31 5.0 7.0 0.00 0.00 0.00 66 1012.4
20260505200006 58 59 6.0 11.0 0.00 0.00 0.00 65 1012.3
20260505195427 58 20 5.0 6.0 0.00 0.00 0.00 64 1012.3
20260505194506 58 31 4.0 5.0 0.00 0.00 0.00 63 1012.0
20260505193627 58 28 3.0 5.0 0.00 0.00 0.00 63 1011.9
20260505192727 58 55 1.0 3.0 0.00 0.00 0.00 63 1012.0
20260505191806 58 50 1.0 3.0 0.00 0.00 0.00 62 1012.0
20260505190906 59 22 2.0 4.0 0.00 0.00 0.00 62 1011.9
20260505190006 59 25 2.0 4.0 0.00 0.00 0.00 62 1011.7
20260505185427 59 32 1.0 3.0 0.00 0.00 0.00 61 1011.8
20260505184506 59 42 3.0 4.0 0.00 0.00 0.00 61 1011.8
20260505183606 59 24 3.0 5.0 0.00 0.00 0.00 60 1011.7
20260505182706 59 30 3.0 5.0 0.00 0.00 0.00 60 1011.6
20260505181806 60 42 4.0 6.0 0.00 0.00 0.00 59 1011.7
20260505180906 60 8 4.0 6.0 0.00 0.00 0.00 58 1011.6
20260505180006 60 50 4.0 6.0 0.00 0.00 0.00 58 1011.6
20260505175427 60 37 5.0 8.0 0.00 0.00 0.00 57 1011.6
20260505174506 60 48 5.0 11.0 0.00 0.00 0.00 57 1011.7
20260505173606 61 37 5.0 11.0 0.00 0.00 0.00 57 1011.7
20260505172706 61 20 6.0 8.0 0.00 0.00 0.00 56 1011.7
20260505171806 61 55 5.0 8.0 0.00 0.00 0.00 54 1011.6
20260505170927 61 37 4.0 7.0 0.00 0.00 0.00 56 1011.7
20260505170027 61 31 4.0 8.0 0.00 0.00 0.00 56 1011.7
20260505165406 61 51 5.0 8.0 0.00 0.00 0.00 57 1011.7
20260505164506 61 27 5.0 7.0 0.00 0.00 0.00 56 1011.7
20260505163606 61 68 4.0 6.0 0.00 0.00 0.00 57 1011.8
20260505162706 60 27 4.0 6.0 0.00 0.00 0.00 57 1011.9
20260505161806 60 16 3.0 5.0 0.00 0.00 0.00 60 1011.8
20260505160906 60 360 3.0 5.0 0.00 0.00 0.00 60 1011.9
20260505152727 60 11 5.0 8.0 0.00 0.00 0.00 59 1011.9
20260505151805 61 91 5.0 8.0 0.00 0.00 0.00 56 1012.0
20260505150905 61 15 4.0 6.0 0.00 0.00 0.00 53 1012.0
20260505124505 61 41 5.0 7.0 0.00 0.00 0.00 53 1012.5
20260505123626 61 62 3.0 6.0 0.00 0.00 0.00 54 1012.6
20260505122706 61 51 4.0 6.0 0.00 0.00 0.00 52 1012.5
20260505121827 62 24 5.0 7.0 0.00 0.00 0.00 52 1012.5
20260505120906 63 23 4.0 8.0 0.00 0.00 0.00 53 1012.4
20260505120006 63 34 4.0 7.0 0.00 0.00 0.00 55 1012.5
20260505115427 62 358 3.0 5.0 0.00 0.00 0.00 60 1012.5
20260505114527 60 14 3.0 4.0 0.00 0.00 0.00 61 1012.6
20260505113605 60 40 4.0 8.0 0.00 0.00 0.00 59 1012.7
20260505112705 60 50 5.0 11.0 0.00 0.00 0.00 61 1012.7
20260505111806 60 44 4.0 6.0 0.00 0.00 0.00 65 1012.8
20260505110927 58 52 4.0 6.0 0.00 0.00 0.00 65 1013.0
20260505101805 57 349 3.0 6.0 0.00 0.00 0.00 70 1013.2
20260505100905 56 3 5.0 7.0 0.00 0.00 0.00 70 1013.1
20260505100006 56 35 5.0 8.0 0.00 0.00 0.00 71 1013.2
20260505095405 57 38 5.0 8.0 0.00 0.00 0.00 71 1013.3
20260505094505 57 68 4.0 8.0 0.00 0.00 0.00 73 1013.3
20260505093605 56 15 5.0 7.0 0.00 0.00 0.00 73 1013.3
20260505092705 56 43 4.0 5.0 0.00 0.00 0.00 74 1013.3
20260505091805 55 360 4.0 5.0 0.00 0.00 0.00 74 1013.4
20260505090906 55 45 4.0 6.0 0.00 0.00 0.00 75 1013.3
20260505090005 55 35 5.0 7.0 0.00 0.00 0.00 75 1013.4
20260505085427 55 21 5.0 7.0 0.00 0.00 0.00 74 1013.4
20260505084526 55 337 5.0 8.0 0.00 0.00 0.00 76 1013.5
20260505083605 55 29 5.0 8.0 0.00 0.00 0.00 79 1013.5
20260505082705 55 2 6.0 8.0 0.00 0.00 0.00 80 1013.6
20260505081827 54 4 4.0 8.0 0.00 0.00 0.00 81 1013.4
20260505080905 54 320 4.0 7.0 0.00 0.00 0.00 82 1013.6
20260505080005 54 76 4.0 7.0 0.00 0.00 0.00 82 1013.6
20260505075405 54 51 4.0 7.0 0.00 0.00 0.00 83 1013.5
20260505074526 53 34 3.0 5.0 0.00 0.00 0.00 84 1013.5
20260505073626 53 352 2.0 4.0 0.00 0.00 0.00 84 1013.6
20260505072705 53 42 3.0 5.0 0.00 0.00 0.00 84 1013.6
20260505071805 53 32 3.0 6.0 0.00 0.00 0.00 84 1013.6
20260505070905 53 37 4.0 5.0 0.00 0.00 0.00 84 1013.7
20260505070026 53 32 5.0 5.0 0.00 0.00 0.00 85 1013.7
20260505065405 53 42 5.0 6.0 0.00 0.00 0.00 86 1013.7
20260505064505 53 25 3.0 5.0 0.00 0.00 0.00 87 1013.7
20260505063605 53 39 3.0 4.0 0.00 0.00 0.00 88 1013.6
20260505062705 52 53 2.0 3.0 0.00 0.00 0.00 88 1013.6
20260505061805 52 41 1.0 3.0 0.00 0.00 0.00 88 1013.5
20260505060905 52 9 1.0 3.0 0.00 0.00 0.00 89 1013.5
20260505060005 51 46 2.0 4.0 0.00 0.00 0.00 89 1013.7
20260505055405 51 45 0.0 2.0 0.00 0.00 0.00 89 1013.8
20260505054505 51 45 1.0 2.0 0.00 0.00 0.00 89 1013.6
20260505053605 51 32 2.0 3.0 0.00 0.00 0.00 89 1013.7
20260505052726 51 50 1.0 3.0 0.00 0.00 0.00 89 1013.7
20260505051805 51 48 1.0 2.0 0.00 0.00 0.00 90 1013.7
20260505050905 51 0 0.0 0.0 0.00 0.00 0.00 90 1013.7